This is the latest recevied weather packets stored in our database for station/object iz1wiy-2. If no packets are shown the sender has not sent any weather packets the latest 1 day(s).
| Time | Temp. | Humidity | Pressure | Rain* | Wind** | Luminosity | Snow |
|---|---|---|---|---|---|---|---|
| 1777967403 | 15.56° C | 84% | 1011.5 hPa | 0 mm | 0 m/s | - | - |
| 1777967103 | 15.56° C | 84% | 1011.6 hPa | 0 mm | 0.45 m/s, 271° | - | - |
| 1777966803 | 15.56° C | 84% | 1011.5 hPa | 0 mm | 0.45 m/s, 279° | - | - |
| 1777966503 | 15.56° C | 84% | 1011.6 hPa | 0.25 mm | 0 m/s | - | - |
| 1777966204 | 15.56° C | 84% | 1011.5 hPa | 0.51 mm | 0 m/s | - | - |
| 1777965903 | 15.56° C | 84% | 1011.5 hPa | 0.51 mm | 0.45 m/s, 31° | - | - |
| 1777965603 | 15.56° C | 84% | 1011.5 hPa | 0.76 mm | 0.45 m/s, 22° | - | - |
| 1777965303 | 15.56° C | 84% | 1011.4 hPa | 0.76 mm | 0.89 m/s, 3° | - | - |
| 1777965003 | 15.56° C | 84% | 1011.4 hPa | 0.76 mm | 0.89 m/s, 355° | - | - |
| 1777964703 | 15.56° C | 84% | 1011.4 hPa | 0.76 mm | 0.89 m/s, 344° | - | - |
| 1777964403 | 15.56° C | 84% | 1011.4 hPa | 0.76 mm | 0.89 m/s, 333° | - | - |
| 1777964103 | 15.56° C | 84% | 1011.4 hPa | 0.76 mm | 0.45 m/s, 336° | - | - |
| 1777963803 | 15.56° C | 84% | 1011.3 hPa | 1.02 mm | 0.89 m/s, 351° | - | - |
| 1777963503 | 15.56° C | 84% | 1011.2 hPa | 1.27 mm | 0.89 m/s, 355° | - | - |
| 1777963203 | 15.56° C | 84% | 1011.1 hPa | 1.52 mm | 0.45 m/s, 344° | - | - |
| 1777962903 | 15.56° C | 84% | 1011.1 hPa | 1.78 mm | 0.45 m/s, 319° | - | - |
| 1777962603 | 15.56° C | 84% | 1011 hPa | 2.03 mm | 0.45 m/s, 340° | - | - |
| 1777962304 | 15.56° C | 84% | 1010.8 hPa | 2.54 mm | 0.45 m/s, 338° | - | - |
| 1777962003 | 15.56° C | 84% | 1010.5 hPa | 3.05 mm | 0.45 m/s, 328° | - | - |
| 1777961703 | 15.56° C | 84% | 1010.4 hPa | 3.56 mm | 0.45 m/s, 337° | - | - |
| 1777961403 | 15.56° C | 84% | 1010.4 hPa | 4.06 mm | 0.45 m/s, 321° | - | - |
| 1777961103 | 15.56° C | 84% | 1010.4 hPa | 4.32 mm | 0.45 m/s, 299° | - | - |
| 1777960803 | 15.56° C | 84% | 1010.3 hPa | 4.83 mm | 0.45 m/s, 297° | - | - |
| 1777960503 | 15.56° C | 83% | 1010.4 hPa | 5.08 mm | 0.45 m/s, 316° | - | - |
| 1777960203 | 15.56° C | 83% | 1010.3 hPa | 5.33 mm | 0.45 m/s, 349° | - | - |
* Rain latest hour (hover to see other rain measurements)
** Current wind speed in m/s (hover to see current wind gust speed)